Weather History for Idabel, OK

Change the Weather History Date:

Tuesday, November 20, 2012

  Actual Average (KDEQ) Record (KDEQ)
Temperature  
Mean Temperature 64 °F 50 °F  
Max Temperature 78 °F 63 °F 80 °F (2011)
Min Temperature 50 °F 37 °F 19 °F (1951)
Degree Days  
Heating Degree Days 1 15  
Month to date heating degree days 221  
Since 1 July heating degree days 354  
Cooling Degree Days 0 0  
Month to date cooling degree days 5  
Year to date cooling degree days 1939  
Growing Degree Days 14 (Base 50)    
Moisture  
Dew Point 45 °F    
Average Humidity 56    
Maximum Humidity 87    
Minimum Humidity 32    
Precipitation  
Precipitation 0.00 in 0.16 in 1.95 in (1988)
Month to date precipitation 3.43  
Year to date precipitation 43.15  
Snow  
Snow 0.00 in - - ()
Month to date snowfall  
Since 1 July snowfall  
Since 1 September snowfall  
Snow Depth -    
Sea Level Pressure  
Sea Level Pressure 30.17 in    
Wind  
Wind Speed 3 mph (NW)    
Max Wind Speed 8 mph    
Max Gust Speed -    
Visibility 10 miles    
Events      
T = Trace of Precipitation, MM = Missing Value Source: NWS Daily Summary

Daily Weather History Graph

Daily Weather History Graph

Search for Another Location

Airport:

Trip Planner

Search our weather history database for the weather conditions in past years. The results will help you decide how hot, cold, wet, or windy it might be!

Date:

Astronomy

Nov. 20, 2012 Rise Set
Actual Time 6:56 AM CST 5:13 PM CST
Civil Twilight 6:30 AM CST 5:39 PM CST
Nautical Twilight 5:59 AM CST 6:10 PM CST
Astronomical Twilight 5:29 AM CST 6:40 PM CST
Moon 12:41 PM CST (11/20) No Moon Set
Length of Visible Light 11h 09m
Length of Day
10h 16m
First Quarter, 51% of the Moon is Illuminated
Nov 20
First Quarter
Nov 28
Full
Dec 6
Last Quarter
Dec 13
New
Dec 19
First Quarter

Hourly Weather History & Observations

Time (CST) Temp. Dew Point Humidity Pressure Visibility Wind Dir Wind Speed Gust Speed Precip Events Conditions
12:15 AM 55.4 °F 42.8 °F 63% 30.17 in 10.0 mi Calm Calm - N/A   Scattered Clouds
12:35 AM 53.6 °F 42.8 °F 67% 30.17 in 10.0 mi ENE 3.5 mph - N/A   Scattered Clouds
12:55 AM 53.6 °F 42.8 °F 67% 30.17 in 10.0 mi Calm Calm - N/A   Mostly Cloudy
1:15 AM 53.6 °F 42.8 °F 67% 30.16 in 10.0 mi Calm Calm - N/A   Overcast
1:35 AM 53.6 °F 42.8 °F 67% 30.17 in 10.0 mi Calm Calm - N/A   Mostly Cloudy
2:15 AM 51.8 °F 42.8 °F 71% 30.17 in 10.0 mi East 5.8 mph - N/A   Scattered Clouds
2:35 AM 51.8 °F 42.8 °F 71% 30.18 in 10.0 mi ENE 4.6 mph - N/A   Scattered Clouds
6:15 AM 53.6 °F 41.0 °F 62% 30.18 in 10.0 mi East 3.5 mph - N/A   Overcast
6:35 AM 53.6 °F 41.0 °F 62% 30.18 in 10.0 mi East 4.6 mph - N/A   Overcast
6:55 AM 53.6 °F 41.0 °F 62% 30.19 in 10.0 mi East 4.6 mph - N/A   Overcast
7:15 AM 51.8 °F 41.0 °F 67% 30.20 in 10.0 mi ENE 4.6 mph - N/A   Overcast
7:35 AM 51.8 °F 41.0 °F 67% 30.20 in 10.0 mi East 4.6 mph - N/A   Scattered Clouds
7:55 AM 51.8 °F 41.0 °F 67% 30.20 in 10.0 mi Calm Calm - N/A   Clear
8:15 AM 51.8 °F 42.8 °F 71% 30.21 in 10.0 mi Calm Calm - N/A   Clear
8:35 AM 55.4 °F 41.0 °F 58% 30.22 in 10.0 mi East 4.6 mph - N/A   Clear
8:55 AM 59.0 °F 41.0 °F 51% 30.22 in 10.0 mi ENE 5.8 mph - N/A   Clear
9:15 AM 60.8 °F 41.0 °F 48% 30.22 in 10.0 mi East 3.5 mph - N/A   Clear
9:35 AM 62.6 °F 41.0 °F 45% 30.21 in 10.0 mi SE 3.5 mph - N/A   Clear
9:55 AM 64.4 °F 41.0 °F 42% 30.21 in 10.0 mi Calm Calm - N/A   Clear
10:15 AM 68.0 °F 41.0 °F 37% 30.22 in 10.0 mi Calm Calm - N/A   Clear
10:35 AM 69.8 °F 42.8 °F 38% 30.21 in 10.0 mi Calm Calm - N/A   Clear
10:55 AM 71.6 °F 42.8 °F 35% 30.20 in 10.0 mi West 3.5 mph - N/A   Clear
11:15 AM 73.4 °F 44.6 °F 36% 30.20 in 10.0 mi Calm Calm - N/A   Clear
11:35 AM 75.2 °F 46.4 °F 36% 30.20 in 10.0 mi Calm Calm - N/A   Clear
11:55 AM 77.0 °F 46.4 °F 34% 30.19 in 10.0 mi NW 4.6 mph - N/A   Clear
12:15 PM 77.0 °F 46.4 °F 34% 30.17 in 10.0 mi West 3.5 mph - N/A   Clear
12:35 PM 78.8 °F 46.4 °F 32% 30.17 in 10.0 mi WSW 3.5 mph - N/A   Clear
12:55 PM 78.8 °F 46.4 °F 32% 30.16 in 10.0 mi SW 5.8 mph - N/A   Clear
1:15 PM 78.8 °F 50.0 °F 36% 30.15 in 10.0 mi West 4.6 mph - N/A   Clear
1:35 PM 78.8 °F 48.2 °F 34% 30.15 in 10.0 mi WSW 6.9 mph - N/A   Clear
1:55 PM 78.8 °F 48.2 °F 34% 30.14 in 10.0 mi West 6.9 mph - N/A   Clear
2:15 PM 78.8 °F 48.2 °F 34% 30.14 in 10.0 mi WSW 3.5 mph - N/A   Clear
2:35 PM 78.8 °F 48.2 °F 34% 30.13 in 10.0 mi WNW 6.9 mph - N/A   Clear
2:55 PM 78.8 °F 46.4 °F 32% 30.13 in 10.0 mi WNW 8.1 mph - N/A   Clear
3:15 PM 78.8 °F 46.4 °F 32% 30.13 in 10.0 mi NNW 5.8 mph - N/A   Clear
3:35 PM 78.8 °F 46.4 °F 32% 30.13 in 10.0 mi NW 5.8 mph - N/A   Clear
3:55 PM 78.8 °F 46.4 °F 32% 30.13 in 10.0 mi WNW 3.5 mph - N/A   Clear
4:15 PM 77.0 °F 46.4 °F 34% 30.13 in 10.0 mi NW 4.6 mph - N/A   Clear
4:35 PM 75.2 °F 46.4 °F 36% 30.12 in 10.0 mi West 4.6 mph - N/A   Clear
4:55 PM 73.4 °F 48.2 °F 41% 30.12 in 10.0 mi WSW 3.5 mph - N/A   Clear
5:15 PM 71.6 °F 48.2 °F 43% 30.13 in 10.0 mi WSW 3.5 mph - N/A   Clear
5:35 PM 68.0 °F 48.2 °F 49% 30.13 in 10.0 mi WSW 3.5 mph - N/A   Clear
5:55 PM 64.4 °F 48.2 °F 56% 30.14 in 10.0 mi Calm Calm - N/A   Clear
6:15 PM 64.4 °F 48.2 °F 56% 30.14 in 10.0 mi Calm Calm - N/A   Clear
6:35 PM 60.8 °F 50.0 °F 68% 30.15 in 10.0 mi Calm Calm - N/A   Clear
6:55 PM 60.8 °F 48.2 °F 63% 30.16 in 10.0 mi Calm Calm - N/A   Clear
7:15 PM 59.0 °F 48.2 °F 67% 30.16 in 10.0 mi Calm Calm - N/A   Clear
7:35 PM 59.0 °F 50.0 °F 72% 30.17 in 10.0 mi Calm Calm - N/A   Clear
7:55 PM 59.0 °F 50.0 °F 72% 30.17 in 10.0 mi NNW 3.5 mph - N/A   Clear
8:15 PM 59.0 °F 50.0 °F 72% 30.17 in 10.0 mi Calm Calm - N/A   Clear
8:35 PM 57.2 °F 48.2 °F 72% 30.18 in 10.0 mi NW 3.5 mph - N/A   Clear
8:55 PM 57.2 °F 50.0 °F 77% 30.18 in 10.0 mi Calm Calm - N/A   Clear
9:15 PM 57.2 °F 48.2 °F 72% 30.19 in 10.0 mi Calm Calm - N/A   Clear
9:35 PM 53.6 °F 46.4 °F 77% 30.20 in 10.0 mi Calm Calm - N/A   Clear
9:55 PM 51.8 °F 44.6 °F 76% 30.19 in 10.0 mi North 3.5 mph - N/A   Clear
10:15 PM 51.8 °F 46.4 °F 82% 30.20 in 10.0 mi Calm Calm - N/A   Clear
10:35 PM 50.0 °F 44.6 °F 82% 30.20 in 10.0 mi North 4.6 mph - N/A   Clear
10:55 PM 50.0 °F 46.4 °F 87% 30.20 in 10.0 mi North 5.8 mph - N/A   Clear
11:15 PM 51.8 °F 46.4 °F 82% 30.20 in 10.0 mi North 3.5 mph - N/A   Clear
11:35 PM 51.8 °F 46.4 °F 82% 30.20 in 10.0 mi North 3.5 mph - N/A   Clear
11:55 PM 51.8 °F 46.4 °F 82% 30.20 in 10.0 mi North 4.6 mph - N/A   Clear